Regional Weather Roundup
Issued by NWS Midland/Odessa, TX

Home | Current Version | Previous Version | Text Only | Print | Product List | Glossary On
Versions: 1 2 3 4 5 6 7 8 9 10 11 12 13 14 15 16 17 18 19 20 21 22 23 24 25 26 27 28 29 30 31 32 33 34 35 36 37 38 39 40 41 42 43 44 45 46 47 48 49 50
000
ASUS44 KMAF 271310
RWRMAF
MIDLAND AREA WEATHER ROUNDUP
NATIONAL WEATHER SERVICE MIDLAND TX
700 AM CST TUE JAN 27 2015

...IN SOUTHWEST TEXAS AND SOUTHEAST NEW MEXICO...

CITY           SKY/WX    TMP DP  RH WIND       PRES   REMARKS
ALPINE         MOCLDY    45  28  49 SW9       30.35R
ANDREWS        FAIR      40  32  74 N8        30.23S WCI  34
ARTESIA        PTCLDY    34  32  93 NW8       30.28R WCI  27
BIG SPRING     PTCLDY    36  33  86 S3        30.25R
CARLSBAD       PTCLDY    35  30  82 CALM      30.26R
DRYDEN           N/A     54  35  48 W7        30.22R
FORT STOCKTON  CLEAR     42  35  76 SW8       30.26R WCI  37
GUAD PASS      NOT AVBL
HOBBS          CLEAR     37  32  81 NW10      30.25S WCI  30
MARFA          CLOUDY    37  30  75 CALM      30.32R
MIDLAND AIRPK  CLEAR     40  33  75 W5        30.24R WCI  37
MIDLAND INTL   PTCLDY    37  31  78 CALM      30.23R
ODESSA         PTCLDY    37  30  75 NW5       30.23R WCI  33
PECOS          CLEAR     36  32  87 CALM      30.26R
PRESIDIO       FAIR      43  38  81 N3        30.29R
SEMINOLE       CLEAR     36  31  84 NW9       30.25R WCI  29
SNYDER         PTCLDY   N/A N/A N/A CALM      30.21R
WINK           CLEAR     33  27  78 N8        30.23R WCI  26
$$
...OTHER STATIONS IN TEXAS...

CITY           SKY/WX    TMP DP  RH WIND       PRES   REMARKS
ABILENE        PTCLDY    42  32  67 CALM      30.18R
AMARILLO       CLEAR     43  32  65 W5        30.21S
AUSTIN         PTCLDY    40  36  86 SW5       30.15R WCI  37
BROWNSVILLE    CLEAR     49  47  93 SW5       30.21R
CORPUS CHRISTI PTCLDY    47  40  76 W6        30.19R
DALLAS FTW     PTCLDY    43  35  73 N5        30.12R
DEL RIO        PTCLDY    44  40  85 NW8       30.21R WCI  39
EL PASO        MOCLDY    47  34  60 N5        30.29R
HOUSTON INT    PTCLDY    48  40  73 W3        30.13R
LUBBOCK        PTCLDY    34  31  88 W9        30.23R WCI  27
SAN ANGELO     CLEAR     36  32  85 SW5       30.21R WCI  32
SAN ANTONIO    PTCLDY    44  36  73 NW6       30.18R
WACO           PTCLDY    38  36  92 SW5       30.13R WCI  34
WICHITA FALLS  NOT AVBL
$$
...OTHER LOCATIONS IN NEW MEXICO...

CITY           SKY/WX    TMP DP  RH WIND       PRES   REMARKS
ALAMAGORDO     PTCLDY    37  28  70 CALM      30.30S
ALBUQUERQUE    PTCLDY    35  26  69 N6        30.32S WCI  30
CANNON AFB     PTCLDY    38  29  68 N5        30.25S WCI  35
CLOVIS         PTCLDY    37  28  70 NW5       30.25R WCI  34
HOLLOMAN AFB   PTCLDY    36  31  82 CALM      30.29R
ROSWELL        CLEAR     35  30  82 W3        30.27R
RUIDOSO        MOCLDY    41  18  38 W5        30.36R WCI  38
SANTA FE       PTCLDY    32  25  75 N15       30.33S WCI  22
TRUTH OR CONSE CLOUDY    43  31  62 CALM      30.31R
TUCUMCARI      LGT RAIN  34  29  82 W7        30.24S WCI  28
$$


USA.gov is the U.S. government's official web portal to all federal, state and local government web resources and services.